Overview Statistics Trail Chart Weather Telemetry Raw packets
 

This is the latest recevied weather packets stored in our database for station/object IZ5RIE-13. If no packets are shown the sender has not sent any weather packets the latest 10 day(s).

<< 9 10 11 12 13 14 15 >>
Time Temp. Humidity Pressure Rain* Wind** Luminosity Snow
1788519694 33.89° C 100% 1020.9 hPa - - - -
1788518794 33.33° C 100% 1020.9 hPa - - - -
1788517894 32.22° C 100% 1020.9 hPa - - - -
1788516994 32.22° C 100% 1021 hPa - - - -
1788516094 32.22° C 100% 1021 hPa - - - -
1788515194 32.22° C 100% 1021.2 hPa - - - -
1788514293 32.22° C 100% 1021.3 hPa - - - -
1788513393 32.78° C 100% 1021.2 hPa - - - -
1788512493 33.33° C 100% 1021.2 hPa - - - -
1788511593 32.78° C 100% 1021.1 hPa - - - -
1788510693 31.67° C 100% 1021.1 hPa - - - -
1788509793 28.89° C 100% 1021.1 hPa - - - -
1788508892 27.78° C 100% 1020.9 hPa - - - -
1788507992 27.22° C 100% 1020.7 hPa - - - -
1788507958 27.22° C 100% 1020.7 hPa - - - -
1788507085 27.22° C 100% 1020.7 hPa - - - -
1788507052 27.22° C 100% 1020.7 hPa - - - -
1788506216 27.22° C 100% 1020.6 hPa - - - -
1788505316 26.67° C 100% 1020.4 hPa - - - -
1788504416 26.67° C 100% 1020.4 hPa - - - -
1788504384 26.67° C 100% 1020.4 hPa - - - -
1788504351 26.67° C 100% 1020.4 hPa - - - -
1788503873 27.22° C 100% 1020.4 hPa - - - -
1788503840 27.22° C 100% 1020.3 hPa - - - -
1788503806 27.22° C 100% 1020.3 hPa - - - -

* Rain since midnight (hover to see other rain measurements)
** Current wind speed in m/s (hover to see current wind gust speed)